Regional Weather Roundup
Issued by NWS

Home | Current Version | Previous Version | Graphics & Text | Print | Product List | Glossary On
Versions: 1 2 3 4 5 6 7 8 9 10 11 12 13 14 15 16 17 18 19 20 21 22 23 24 25 26 27 28 29 30 31 32 33 34 35 36 37 38 39 40 41 42 43 44 45 46 47 48 49 50
000
ASUS43 KLMK 281610
RWRKY
KENTUCKY REGIONAL WEATHER ROUNDUP
NATIONAL WEATHER SERVICE LOUISVILLE KY
1200 PM EDT MON JUL 28 2014

NOTE "FAIR" INDICATES FEW OR NO CLOUDS BELOW 12,000 FEET
WITH NO SIGNIFICANT WEATHER AND/OR OBSTRUCTIONS TO VISIBILITY.

KYZ001>023-026-027-061>063-070>075-281700-
WESTERN AND SOUTH CENTRAL KENTUCKY

CITY           SKY/WX    TMP DP  RH WIND       PRES   REMARKS
PADUCAH        MOSUNNY   78  63  59 W6        30.06S
HENDERSON      MOSUNNY   73  61  64 N8        30.04S
OWENSBORO      PTSUNNY   73  61  64 NW12      30.04R
HOPKINSVILLE   MOSUNNY   77  60  55 NW10G17   30.04R
BOWLING GREEN  PTSUNNY   77  60  55 NW8G16    30.02R
GLASGOW        PTSUNNY   76  61  59 W10       30.01S
$$

KYZ024-025-028>034-038-045-046-053-281700-
NORTH CENTRAL KENTUCKY

CITY           SKY/WX    TMP DP  RH WIND       PRES   REMARKS
LOUISVILLE/SDF CLOUDY    73  60  63 W8        30.00R
LOUISVILLE/LOU CLOUDY    72  59  63 NW8       30.00R
FORT KNOX      CLOUDY    71  62  74 NW9       30.00R
$$

KYZ035>037-039>044-047>052-055>060-089>105-281700-
NORTHEAST KENTUCKY

CITY           SKY/WX    TMP DP  RH WIND       PRES   REMARKS
LEXINGTON      CLOUDY    70  59  68 NW15      29.99R
COVINGTON      CLOUDY    69  58  67 NW12      29.97R
FRANKFORT      CLOUDY    68  59  73 NW7       29.99R
$$

KYZ054-064>069-076>088-106>120-281700-
SOUTHEAST KENTUCKY

CITY           SKY/WX    TMP DP  RH WIND       PRES   REMARKS
JACKSON        CLOUDY    68  60  75 VRB3      29.97R
LONDON         PTSUNNY   73  59  61 W14       29.99R
SOMERSET       PTSUNNY   72  59  64 NW9G16    30.00S
MIDDLESBORO    PTSUNNY   76  59  56 NW5       29.98S
MONTICELLO     PTSUNNY   75  64  68 W8        30.01R
$$



USA.gov is the U.S. government's official web portal to all federal, state and local government web resources and services.